Location: Brompton
(51.4000°N, 0.5333°E)
Time: 14:10:33
(UTC+00:00)

USA 215 - Pass Details

Date: 29 September 2021
Orbit: 1102 x 1106 km, 123.0° (Epoch: 22 October)

Event Time Altitude Azimuth Distance (km) Brightness Sun altitude
Exits shadow 19:45:56 31° 133° (SE) 1,828 3.9 -20.1°
Maximum altitude 19:49:21 76° 213° (SSW) 1,139 3.3 -20.6°
Drops below altitude 10° 19:55:55 10° 299° (WNW) 2,966 6.7 -21.6°
Sets 19:58:25 0° 301° (WNW) 3,926 7.7 -21.9°
